Location: Gallinara
(44.0333°N, 8.2333°E)
Time: 06:18:08
(UTC+00:00)

Lacrosse 5 - Pass Details

Date: 25 September 2020
Orbit: 716 x 723 km, 57.0° (Epoch: 23 October)

Event Time Altitude Azimuth Distance (km) Brightness Sun altitude
Exits shadow 04:37:39 - 306° (NW) 3,006 4.6 -8.1°
Reaches altitude 10° 04:40:18 10° 322° (NW) 2,208 4.1 -7.6°
Maximum altitude 04:43:59 20° 9° (N) 1,643 3.9 -6.9°
Drops below altitude 10° 04:47:42 10° 56° (NE) 2,210 5.5 -6.3°
Sets 04:50:42 0° 74° (ENE) 3,131 7.2 -5.7°
